Weather observations for the past three days for
Spencer Municipal Airport
Imperial (Metric)
Date Time (cdt) Wind (mph) Vis. (mi.) Weather Sky Cond. Temperature (ºF) Relative Humidity Wind Chill (°F) Heat Index (°F) Pressure Precipitation (in)
Air Dwpt 6 hour altimeter (in) sea level (mb) 1 hr 3 hr 6 hr
Max. Min.
13 00:53 SE 9 10.00 Fair CLR 75 70 84.9 75 84% 75 30.02 1015.4
12 23:53 SE 7 10.00 Fair CLR 75.9 70 82% 77 30.02 1015.6
12 22:53 SE 8 10.00 Fair CLR 77 70 79% 79 30.03 1015.7
12 21:53 SE 9 10.00 Fair CLR 78.1 70 76% 80 30.02 1015.6
12 20:53 S 10 10.00 Fair CLR 80.1 70 71% 83 30.01 1015.3
12 19:53 S 10 10.00 Fair CLR 82.9 70 65% 87 30.01 1015.4
12 18:53 SE 14 10.00 A Few Clouds FEW038 84.9 69.1 87.1 82.9 59% 89 30.01 1015.2
12 17:53 S 12 10.00 Fair CLR 86 69.1 57% 90 30 1015.1
12 16:53 S 16 G 23 10.00 A Few Clouds FEW039 87.1 69.1 55% 91 30 1015.0
12 15:53 S 15 G 24 10.00 A Few Clouds FEW038 86 68 55% 89 30.01 1015.3
12 14:53 S 15 10.00 Partly Cloudy SCT036 86 69.1 57% 90 30.03 1016.0
12 13:53 S 13 10.00 A Few Clouds FEW036 84.9 66.9 55% 88 30.03 1015.9
12 12:53 SE 14 G 22 10.00 A Few Clouds FEW035 84 66 84 66.9 55% 86 30.05 1016.6
12 11:53 SE 15 G 24 10.00 Fair CLR 82 64 55% 84 30.06 1017.0
12 10:53 S 14 G 23 10.00 A Few Clouds FEW027 80.1 64.9 60% 82 30.07 1017.4
12 09:53 S 15 10.00 Fair CLR 78.1 64.9 64% 80 30.08 1017.9
12 08:53 S 12 10.00 Fair CLR 75 64.9 71% 77 30.09 1018.0
12 07:53 SE 10 10.00 Fair CLR 71.1 64 79% 30.08 1017.7
12 06:53 S 7 10.00 Fair CLR 66.9 62.1 66.9 64.9 84% 30.07 1017.3
12 05:53 SE 8 10.00 Fair CLR 66 61 84% 30.05 1016.8
12 04:53 S 6 10.00 Fair CLR 64.9 61 87% 30.05 1016.8
12 03:53 SE 8 10.00 Fair CLR 66.9 61 81% 30.04 1016.4
12 02:53 S 7 10.00 Fair CLR 66 61 84% 30.05 1016.8
12 01:53 S 5 10.00 Fair CLR 66.9 62.1 84% 30.07 1017.5
12 00:53 S 7 8.00 Fair CLR 68 62.1 82.9 68 81% 30.08 1017.6
11 23:53 SE 6 8.00 Fair CLR 68 62.1 81% 30.08 1017.6
11 22:53 SE 7 10.00 Fair CLR 70 63 79% 30.06 1017.2
11 21:53 SE 6 10.00 Fair CLR 71.1 63 76% 30.06 1017.1
11 20:53 S 6 10.00 Fair CLR 75 64 69% 77 30.05 1016.8
11 19:53 S 6 10.00 A Few Clouds FEW055 80.1 63 56% 81 30.05 1016.8
11 18:53 S 7 10.00 Partly Cloudy SCT050 82.9 61 84.9 81 48% 83 30.05 1016.7
11 17:53 SE 9 10.00 Fair CLR 84 60.1 44% 84 30.05 1016.8
11 16:53 SE 9 10.00 Partly Cloudy SCT060 84 60.1 44% 84 30.06 1017.4
11 15:53 SE 8 10.00 A Few Clouds FEW060 84.9 57.9 40% 84 30.07 1017.5
11 14:53 S 8 10.00 A Few Clouds FEW050 FEW060 84.9 61 45% 85 30.08 1017.9
11 13:53 SE 8 10.00 Partly Cloudy SCT050 84 61 46% 84 30.09 1018.3
11 12:53 E 9 10.00 Fair CLR 82.9 61 82.9 63 48% 83 30.1 1018.5
11 11:53 E 8 10.00 Fair CLR 82 60.1 47% 82 30.1 1018.6
11 10:53 Calm 10.00 Fair CLR 81 62.1 53% 82 30.1 1018.6
11 09:53 Vrbl 3 10.00 Fair CLR 78.1 63 60% 80 30.1 1018.7
11 08:53 NE 5 10.00 Fair CLR 75 64 69% 77 30.11 1018.7
11 07:53 Calm 10.00 NULL NULL 70 63 79% 30.1 1018.7
11 06:53 W 3 10.00 NULL NULL 63 60.1 64.9 60.1 90% 30.1 1018.7
11 05:53 Calm 8.00 Fair CLR 61 57 87% 30.09 1018.3
11 04:53 W 5 9.00 Fair CLR 60.1 57 90% 30.08 1017.9
11 03:53 Calm 7.00 Fair CLR 61 57.9 90% 30.07 1017.7
11 02:53 Calm 3.00 Fog/Mist CLR 62.1 59 90% 30.07 1017.6
11 01:53 Calm 3.00 Fog/Mist CLR 64 60.1 87% 30.07 1017.4
11 00:53 N 3 10.00 Fair CLR 64.9 62.1 77 64 90% 30.07 1017.4
10 23:53 E 3 10.00 Fair CLR 66 62.1 87% 30.07 1017.4
10 22:53 Calm 10.00 Fair CLR 66.9 62.1 84% 30.06 1017.1
10 21:53 Calm 10.00 Fair CLR 69.1 64 84% 30.04 1016.6
10 20:53 N 7 10.00 Fair CLR 73 64.9 76% 30.03 1016.2
10 19:53 NW 7 10.00 Fair CLR 75 62.1 64% 77 30.03 1016.1
10 18:53 N 3 10.00 Fair CLR 75.9 61 82.9 75.9 60% 78 30.02 1015.8
10 17:53 N 13 10.00 Fair CLR 77 63 62% 79 30.01 1015.5
10 16:53 N 9 10.00 Mostly Cloudy BKN110 79 62.1 56% 80 30.02 1015.6
10 15:53 N 12 10.00 Fair CLR 81 62.1 53% 82 30 1015.2
10 14:53 NE 7 10.00 Fair CLR 78.1 60.1 54% 79 29.99 1014.7
10 13:53 N 7 10.00 Fair CLR 81 60.1 49% 82 30.01 1015.4
10 12:53 E 8 10.00 Fair CLR 80.1 61 80.1 68 52% 81 30.01 1015.5
10 11:53 NE 9 10.00 Fair CLR 79 62.1 56% 80 30.01 1015.3
10 10:53 N 9 10.00 Fair CLR 78.1 60.1 54% 79 30 1015.1
10 09:53 N 6 10.00 Fair CLR 73.9 60.1 62% 29.99 1014.7
10 08:53 NE 8 10.00 Fair CLR 73.9 63 69% 30 1014.9
10 07:53 W 5 10.00 Fair CLR 71.1 61 71% 29.99 1014.6
10 06:53 W 5 10.00 Fair CLR 68 61 69.1 64.9 78% 29.96 1013.7
10 05:53 E 7 10.00 Light Rain SCT095 BKN110 66.9 59 76% 29.95 1013.5
10 04:53 N 16 G 30 10.00 Thunderstorm in Vicinity Light Rain FEW038 BKN055 OVC110 66.9 60.1 79% 29.97 1014.0
10 03:53 Calm 10.00 Mostly Cloudy BKN075 66.9 63 87% 29.95 1013.1
10 02:53 NW 5 9.00 Fair CLR 64.9 61 87% 29.94 1013.0
10 01:53 Calm 10.00 Fair CLR 66.9 63 87% 29.94 1012.9
Date Time (cdt) Wind (mph) Vis. (mi.) Weather Sky Cond. Air Dwpt Max. Min. Relative Humidity Wind Chill (°F) Heat Index (°F) altimeter (in) sea level (mb) 1 hr 3 hr 6 hr
6 hour
Temperature (ºF) Pressure Precipitation (in)